When you browse on this site, cookies collect data to enhance your experience and personalize the content and advertising you see.
Visit our Privacy Policy to learn more. By continuing to use the site, you agree to this use of cookies and data.
  • In Lithuania
  • List of Countries
  • For 7 days
  • Water Temperature
  • Satellite Maps
  • Weather Map
  • Weather Widgets
  • user-avatar
    Login

    Hourly Weather Klyuchevskoe

    Today, 23 February, Saturday

    Time Temperature Precipitation Wind Pressure Humidity
    00:00 +3°C° 0 mm 3 mps 744 mmHg 79%
    01:00 +3°C° 0 mm 3 mps 744 mmHg 79%
    02:00 +4°C° 0 mm 2 mps 744 mmHg 78%
    03:00 +3°C° 0 mm 2 mps 745 mmHg 78%
    04:00 +3°C° 0 mm 2 mps 745 mmHg 78%
    05:00 +3°C° 0 mm 2 mps 745 mmHg 77%
    06:00 +3°C° 0 mm 2 mps 745 mmHg 77%
    07:00 +2°C° 0 mm 3 mps 746 mmHg 75%
    08:00 +3°C° 0 mm 3 mps 746 mmHg 73%
    09:00 +3°C° 0 mm 4 mps 746 mmHg 71%
    10:00 +4°C° 0 mm 4 mps 746 mmHg 68%
    11:00 +5°C° 0 mm 4 mps 746 mmHg 66%
    12:00 +6°C° 0 mm 4 mps 747 mmHg 63%
    13:00 +7°C° 0.1 mm 3 mps 747 mmHg 63%
    14:00 +8°C° 0.1 mm 2 mps 747 mmHg 64%
    15:00 +8°C° 0.1 mm 2 mps 747 mmHg 64%
    16:00 +7°C° 0.2 mm 2 mps 747 mmHg 69%
    17:00 +7°C° 0.2 mm 2 mps 747 mmHg 74%
    18:00 +6°C° 0.2 mm 2 mps 748 mmHg 78%
    19:00 +7°C° 0.3 mm 1 mps 748 mmHg 80%
    20:00 +6°C° 0.3 mm 1 mps 748 mmHg 82%
    21:00 +6°C° 0.3 mm 1 mps 749 mmHg 84%
    22:00 +6°C° 0.1 mm 1 mps 749 mmHg 85%
    23:00 +6°C° 0.1 mm 1 mps 749 mmHg 86%

    Tomorrow, 24 February, Sunday

    Time Temperature Precipitation Wind Pressure Humidity
    00:00 +5°C° 0.1 mm 1 mps 749 mmHg 87%
    01:00 +4°C° 0 mm 2 mps 749 mmHg 89%
    02:00 +3°C° 0 mm 2 mps 749 mmHg 90%
    03:00 +2°C° 0 mm 2 mps 749 mmHg 92%
    04:00 +2°C° 0 mm 2 mps 749 mmHg 92%
    05:00 +1°C° 0 mm 2 mps 749 mmHg 92%
    06:00 +1°C° 0 mm 2 mps 749 mmHg 93%
    07:00 +1°C° 0.1 mm 2 mps 750 mmHg 91%
    08:00 +1°C° 0.1 mm 2 mps 750 mmHg 90%
    09:00 +1°C° 0.1 mm 2 mps 750 mmHg 89%
    10:00 +1°C° 0.3 mm 2 mps 750 mmHg 87%
    11:00 +1°C° 0.3 mm 2 mps 750 mmHg 86%
    12:00 +1°C° 0.3 mm 2 mps 750 mmHg 85%
    13:00 +2°C° 0.2 mm 2 mps 750 mmHg 85%
    14:00 +2°C° 0.2 mm 2 mps 750 mmHg 84%
    15:00 +2°C° 0.2 mm 2 mps 751 mmHg 84%
    16:00 +1°C° 0 mm 3 mps 751 mmHg 84%
    17:00 0°C° 0 mm 3 mps 751 mmHg 85%
    18:00 0°C° 0 mm 3 mps 751 mmHg 85%
    19:00 0°C° 0 mm 3 mps 752 mmHg 86%
    20:00 -1°C° 0 mm 2 mps 752 mmHg 87%
    21:00 -1°C° 0 mm 2 mps 752 mmHg 88%
    22:00 -1°C° 0 mm 2 mps 752 mmHg 88%
    23:00 -2°C° 0 mm 2 mps 752 mmHg 89%

    Day after tomorrow, 25 February, Monday

    Time Temperature Precipitation Wind Pressure Humidity
    00:00 -2°C° 0 mm 3 mps 752 mmHg 89%
    01:00 -4°C° 0 mm 3 mps 752 mmHg 89%
    02:00 -4°C° 0 mm 3 mps 752 mmHg 88%
    03:00 -4°C° 0 mm 3 mps 752 mmHg 87%
    04:00 -4°C° 0 mm 3 mps 752 mmHg 86%
    05:00 -5°C° 0 mm 3 mps 751 mmHg 85%
    06:00 -5°C° 0 mm 3 mps 751 mmHg 85%
    07:00 -5°C° 0 mm 3 mps 751 mmHg 81%
    08:00 -4°C° 0 mm 4 mps 751 mmHg 77%
    09:00 -4°C° 0 mm 4 mps 751 mmHg 74%
    10:00 -3°C° 0 mm 4 mps 751 mmHg 64%
    11:00 -2°C° 0 mm 5 mps 750 mmHg 55%
    12:00 -1°C° 0 mm 6 mps 750 mmHg 46%
    13:00 -1°C° 0 mm 6 mps 749 mmHg 47%
    14:00 +1°C° 0 mm 6 mps 748 mmHg 47%
    15:00 +1°C° 0 mm 6 mps 748 mmHg 48%
    16:00 -1°C° 0 mm 6 mps 747 mmHg 54%
    17:00 0°C° 0 mm 5 mps 747 mmHg 59%
    18:00 -1°C° 0 mm 5 mps 747 mmHg 65%
    19:00 -1°C° 0 mm 5 mps 746 mmHg 67%
    20:00 -2°C° 0 mm 6 mps 746 mmHg 69%
    21:00 -2°C° 0 mm 7 mps 745 mmHg 71%
    22:00 -3°C° 0 mm 7 mps 745 mmHg 72%
    23:00 -3°C° 0 mm 7 mps 744 mmHg 73%

    26 February, Tuesday

    Time Temperature Precipitation Wind Pressure Humidity
    00:00 -4°C° 0 mm 8 mps 744 mmHg 73%
    01:00 -4°C° 0 mm 8 mps 743 mmHg 74%
    02:00 -4°C° 0 mm 9 mps 742 mmHg 75%
    03:00 -4°C° 0 mm 9 mps 741 mmHg 76%
    04:00 -4°C° 0.1 mm 10 mps 741 mmHg 76%
    05:00 -3°C° 0.1 mm 10 mps 740 mmHg 77%
    06:00 -3°C° 0.1 mm 11 mps 739 mmHg 77%
    07:00 -3°C° 0.4 mm 11 mps 739 mmHg 78%
    08:00 -3°C° 0.4 mm 11 mps 739 mmHg 80%
    09:00 -3°C° 0.4 mm 11 mps 739 mmHg 81%
    10:00 -3°C° 0.3 mm 10 mps 738 mmHg 79%
    11:00 -3°C° 0.3 mm 10 mps 738 mmHg 76%
    12:00 -3°C° 0.3 mm 9 mps 737 mmHg 74%
    13:00 -1°C° 0.1 mm 9 mps 737 mmHg 72%
    14:00 -1°C° 0.1 mm 9 mps 736 mmHg 69%
    15:00 -1°C° 0.1 mm 9 mps 736 mmHg 67%
    16:00 -1°C° 0.1 mm 8 mps 735 mmHg 70%
    17:00 -2°C° 0.1 mm 7 mps 735 mmHg 73%
    18:00 -2°C° 0.1 mm 6 mps 735 mmHg 76%
    19:00 -2°C° 0 mm 6 mps 735 mmHg 78%
    20:00 -3°C° 0 mm 6 mps 735 mmHg 80%
    21:00 -3°C° 0 mm 7 mps 734 mmHg 82%
    22:00 -3°C° 0 mm 6 mps 734 mmHg 82%
    23:00 -3°C° 0 mm 6 mps 733 mmHg 82%

    27 February, Wednesday

    Time Temperature Precipitation Wind Pressure Humidity
    00:00 -3°C° 0 mm 6 mps 733 mmHg 81%
    01:00 -4°C° 0 mm 5 mps 733 mmHg 83%
    02:00 -4°C° 0 mm 5 mps 732 mmHg 85%
    03:00 -3°C° 0 mm 4 mps 732 mmHg 86%
    04:00 -2°C° 0.1 mm 3 mps 731 mmHg 88%
    05:00 -2°C° 0.1 mm 2 mps 731 mmHg 90%
    06:00 -2°C° 0.1 mm 2 mps 731 mmHg 92%
    07:00 +1°C° 0.2 mm 1 mps 731 mmHg 92%
    08:00 +1°C° 0.2 mm 1 mps 731 mmHg 91%
    09:00 +2°C° 0.2 mm 1 mps 731 mmHg 91%
    10:00 +2°C° 0.3 mm 1 mps 731 mmHg 88%
    11:00 +2°C° 0.3 mm 2 mps 731 mmHg 85%
    12:00 +2°C° 0.3 mm 2 mps 731 mmHg 82%
    13:00 +4°C° 0.1 mm 1 mps 731 mmHg 79%
    14:00 +4°C° 0.1 mm 1 mps 731 mmHg 76%
    15:00 +4°C° 0.1 mm 1 mps 731 mmHg 72%
    16:00 +4°C° 0 mm 1 mps 732 mmHg 77%
    17:00 +2°C° 0 mm 2 mps 732 mmHg 82%
    18:00 +1°C° 0 mm 2 mps 732 mmHg 87%
    19:00 0°C° 0 mm 3 mps 733 mmHg 88%
    20:00 0°C° 0 mm 3 mps 734 mmHg 90%
    21:00 -1°C° 0 mm 4 mps 734 mmHg 91%
    22:00 -1°C° 0.1 mm 3 mps 735 mmHg 91%
    23:00 -1°C° 0.1 mm 3 mps 735 mmHg 91%

    28 February, Thursday

    Time Temperature Precipitation Wind Pressure Humidity
    00:00 -2°C° 0.1 mm 3 mps 735 mmHg 91%
    01:00 -2°C° 0 mm 2 mps 736 mmHg 92%
    02:00 -3°C° 0 mm 2 mps 736 mmHg 93%
    03:00 -3°C° 0 mm 2 mps 736 mmHg 95%
    04:00 -4°C° 0 mm 2 mps 737 mmHg 94%
    05:00 -4°C° 0 mm 2 mps 737 mmHg 93%
    06:00 -5°C° 0 mm 3 mps 737 mmHg 93%
    07:00 -4°C° 0 mm 3 mps 737 mmHg 89%
    08:00 -3°C° 0 mm 4 mps 738 mmHg 85%
    09:00 -4°C° 0 mm 5 mps 738 mmHg 82%
    10:00 -2°C° 0 mm 5 mps 737 mmHg 78%
    11:00 -2°C° 0 mm 6 mps 737 mmHg 75%
    12:00 -1°C° 0 mm 6 mps 737 mmHg 72%
    13:00 -1°C° 0 mm 6 mps 736 mmHg 71%
    14:00 -1°C° 0 mm 7 mps 736 mmHg 70%
    15:00 -1°C° 0 mm 7 mps 735 mmHg 69%
    16:00 -1°C° 0 mm 7 mps 735 mmHg 72%
    17:00 -2°C° 0 mm 7 mps 735 mmHg 75%
    18:00 -3°C° 0 mm 7 mps 735 mmHg 78%
    19:00 -4°C° 0 mm 8 mps 735 mmHg 78%
    20:00 -4°C° 0 mm 8 mps 735 mmHg 78%
    21:00 -4°C° 0 mm 9 mps 735 mmHg 78%
    22:00 -3°C° 0 mm 10 mps 735 mmHg 76%
    23:00 -3°C° 0 mm 10 mps 734 mmHg 73%
    Show more